LIC0229 KMIA-CYUL

Flight info

Callsign LIC0229
Flight time 2h 57m
Altitude 30000
Route FOLZZ3 ALYRA DCT GRUBR/N0491F310 Y299 SEELO DCT WAALT Q131 EARZZ DCT JAMIE Q133 PBERG CARTR5
Aircraft B77L/H-SDE1E2E3FGHIJ2J3J4J5M1RWXY/LB1D1

Departure

Time 2026-05-06 07:45
Airport Miami International Airport (KMIA)

Arrival

Time 2026-05-06 10:43
Airport Montreal / Pierre Elliott Trudeau International Airport (CYUL)
Time Latitude Longitude Altitude Speed Heading
2026-05-06 07:21 25.79015 -80.30641 19 ft 0 kts 269°
2026-05-06 07:37 25.79015 -80.30623 21 ft 4 kts 269°
2026-05-06 07:38 25.79015 -80.30597 23 ft 4 kts 262°
2026-05-06 07:38 25.79022 -80.30575 23 ft 4 kts 220°
2026-05-06 07:38 25.79041 -80.30565 22 ft 4 kts 183°
2026-05-06 07:38 25.79065 -80.30565 22 ft 1 kts 179°
2026-05-06 07:39 25.79070 -80.30565 21 ft 0 kts 179°
2026-05-06 07:40 25.79063 -80.30565 22 ft 3 kts 179°
2026-05-06 07:41 25.79018 -80.30564 23 ft 10 kts 179°
2026-05-06 07:41 25.78953 -80.30562 19 ft 1 kts 179°
2026-05-06 07:41 25.78923 -80.30562 19 ft 8 kts 179°
2026-05-06 07:41 25.78853 -80.30569 19 ft 9 kts 207°
2026-05-06 07:42 25.78839 -80.30626 19 ft 10 kts 265°
2026-05-06 07:42 25.78836 -80.30724 19 ft 16 kts 268°
2026-05-06 07:42 25.78830 -80.30858 19 ft 20 kts 267°
2026-05-06 07:42 25.78823 -80.31010 19 ft 20 kts 267°
2026-05-06 07:43 25.78817 -80.31161 19 ft 20 kts 268°
2026-05-06 07:43 25.78812 -80.31307 20 ft 13 kts 267°
2026-05-06 07:43 25.78807 -80.31409 19 ft 13 kts 267°
2026-05-06 07:43 25.78764 -80.31483 19 ft 12 kts 192°
2026-05-06 07:44 25.78682 -80.31480 19 ft 12 kts 178°
2026-05-06 07:44 25.78618 -80.31460 19 ft 6 kts 124°
2026-05-06 07:44 25.78614 -80.31385 19 ft 22 kts 86°
2026-05-06 07:44 25.78631 -80.30990 19 ft 84 kts 87°
2026-05-06 07:45 25.78667 -80.30108 19 ft 143 kts 88°
2026-05-06 07:45 25.78719 -80.28832 51 ft 184 kts 87°
2026-05-06 07:45 25.78713 -80.27398 432 ft 185 kts 97°
2026-05-06 07:45 25.78484 -80.25979 916 ft 191 kts 100°
2026-05-06 07:46 25.78219 -80.24508 1356 ft 196 kts 102°
2026-05-06 07:46 25.77918 -80.23000 1755 ft 207 kts 102°
2026-05-06 07:46 25.77571 -80.21357 1875 ft 231 kts 103°
2026-05-06 07:46 25.77176 -80.19544 2194 ft 250 kts 103°
2026-05-06 07:47 25.76711 -80.17669 2739 ft 256 kts 112°
2026-05-06 07:47 25.75896 -80.15899 3361 ft 259 kts 119°
2026-05-06 07:47 25.74987 -80.14145 3976 ft 265 kts 120°
2026-05-06 07:47 25.74193 -80.12293 4473 ft 269 kts 101°
2026-05-06 07:48 25.74328 -80.10233 5008 ft 273 kts 65°
2026-05-06 07:48 25.75398 -80.08510 5588 ft 274 kts 48°
2026-05-06 07:48 25.76673 -80.06906 6094 ft 282 kts 48°
2026-05-06 07:48 25.77929 -80.05326 6776 ft 282 kts 47°
2026-05-06 07:49 25.79271 -80.03640 7408 ft 284 kts 47°
2026-05-06 07:49 25.80582 -80.01992 8021 ft 286 kts 47°
2026-05-06 07:49 25.81906 -80.00325 8627 ft 289 kts 47°
2026-05-06 07:49 25.83239 -79.98642 9250 ft 292 kts 46°
2026-05-06 07:50 25.84582 -79.96942 9868 ft 294 kts 46°
2026-05-06 07:50 25.85938 -79.95225 10366 ft 300 kts 46°
2026-05-06 07:50 25.87358 -79.93426 10539 ft 320 kts 46°
2026-05-06 07:50 25.88872 -79.91508 10697 ft 341 kts 46°
2026-05-06 07:51 25.90479 -79.89468 10857 ft 361 kts 46°
2026-05-06 07:51 25.92170 -79.87316 11121 ft 377 kts 47°
2026-05-06 07:51 25.93916 -79.85090 11590 ft 387 kts 47°
2026-05-06 07:51 25.95697 -79.82817 12209 ft 392 kts 47°
2026-05-06 07:52 25.97497 -79.80519 12954 ft 395 kts 47°
2026-05-06 07:52 25.99310 -79.78204 13659 ft 399 kts 46°
2026-05-06 07:52 26.01141 -79.75866 14271 ft 403 kts 46°
2026-05-06 07:52 26.02992 -79.73502 14903 ft 406 kts 46°
2026-05-06 07:53 26.04853 -79.71123 15540 ft 409 kts 46°
2026-05-06 07:53 26.06725 -79.68729 16169 ft 412 kts 46°
2026-05-06 07:53 26.08611 -79.66317 16784 ft 415 kts 46°
2026-05-06 07:53 26.10516 -79.63879 17374 ft 418 kts 47°
2026-05-06 07:54 26.12333 -79.61327 17980 ft 423 kts 51°
2026-05-06 07:54 26.14011 -79.58676 18509 ft 427 kts 53°
2026-05-06 07:54 26.15689 -79.55928 18990 ft 431 kts 53°
2026-05-06 07:54 26.17384 -79.53163 19446 ft 434 kts 52°
2026-05-06 07:55 26.19113 -79.50382 19912 ft 438 kts 52°
2026-05-06 07:55 26.20869 -79.47592 20372 ft 441 kts 51°
2026-05-06 07:55 26.22645 -79.44788 20825 ft 445 kts 51°
2026-05-06 07:55 26.24436 -79.41964 21266 ft 448 kts 51°
2026-05-06 07:56 26.26243 -79.39114 21693 ft 452 kts 51°
2026-05-06 07:56 26.28187 -79.36399 21988 ft 448 kts 39°
2026-05-06 07:56 26.30722 -79.34412 22275 ft 445 kts 21°
2026-05-06 07:56 26.33619 -79.33295 22724 ft 438 kts 11°
2026-05-06 07:57 26.36573 -79.32427 23119 ft 441 kts 11°
2026-05-06 07:57 26.38545 -79.31854 23389 ft 443 kts 11°
2026-05-06 07:57 26.41541 -79.30979 23780 ft 446 kts 11°
2026-05-06 07:57 26.44549 -79.30091 24159 ft 447 kts 11°
2026-05-06 07:58 26.47562 -79.29189 24544 ft 449 kts 11°
2026-05-06 07:58 26.50586 -79.28274 24919 ft 451 kts 11°
2026-05-06 07:58 26.53620 -79.27349 25277 ft 453 kts 11°
2026-05-06 07:58 26.56667 -79.26416 25639 ft 455 kts 11°
2026-05-06 07:59 26.59725 -79.25477 25993 ft 457 kts 11°
2026-05-06 07:59 26.62798 -79.24533 26362 ft 459 kts 11°
2026-05-06 07:59 26.65883 -79.23584 26725 ft 461 kts 11°
2026-05-06 07:59 26.68980 -79.22631 27089 ft 463 kts 11°
2026-05-06 08:00 26.72094 -79.21673 27449 ft 465 kts 11°
2026-05-06 08:00 26.75217 -79.20711 27818 ft 466 kts 11°
2026-05-06 08:00 26.78352 -79.19745 28173 ft 468 kts 11°
2026-05-06 08:00 26.81460 -79.18787 28495 ft 471 kts 11°
2026-05-06 08:01 26.84625 -79.17812 28829 ft 472 kts 11°
2026-05-06 08:01 26.87788 -79.16835 29299 ft 471 kts 11°
2026-05-06 08:01 26.90941 -79.15860 29875 ft 468 kts 11°
2026-05-06 08:01 26.94083 -79.14888 30043 ft 469 kts 10°
2026-05-06 08:02 27.00344 -79.12951 30045 ft 465 kts 10°
2026-05-06 08:02 27.06578 -79.11022 30062 ft 465 kts 10°
2026-05-06 08:03 27.12818 -79.09090 30053 ft 465 kts 10°
2026-05-06 08:03 27.19059 -79.07154 30047 ft 465 kts 10°
2026-05-06 08:04 27.25298 -79.05216 30053 ft 465 kts 10°
2026-05-06 08:04 27.31529 -79.03278 30052 ft 464 kts 10°
2026-05-06 08:05 27.37757 -79.01339 30048 ft 463 kts 10°
2026-05-06 08:05 27.43961 -78.99405 30050 ft 463 kts 10°
2026-05-06 08:06 27.50154 -78.97473 30051 ft 462 kts 10°
2026-05-06 08:06 27.56345 -78.95539 30052 ft 461 kts 10°
2026-05-06 08:07 27.62526 -78.93606 30053 ft 461 kts 10°
2026-05-06 08:07 27.68697 -78.91673 30049 ft 460 kts 10°
2026-05-06 08:08 27.74872 -78.89738 30059 ft 460 kts 10°
2026-05-06 08:08 27.81038 -78.87802 30055 ft 460 kts 10°
2026-05-06 08:09 27.87167 -78.85876 30057 ft 460 kts
2026-05-06 08:09 27.93327 -78.83938 30058 ft 460 kts
2026-05-06 08:10 27.99487 -78.81998 30059 ft 460 kts
2026-05-06 08:10 28.05653 -78.80053 30059 ft 460 kts
2026-05-06 08:11 28.11811 -78.78109 30056 ft 459 kts
2026-05-06 08:11 28.17963 -78.76164 30059 ft 459 kts
2026-05-06 08:12 28.24119 -78.74216 30057 ft 459 kts
2026-05-06 08:12 28.27215 -78.73237 30175 ft 464 kts
2026-05-06 08:12 28.30316 -78.72254 30607 ft 462 kts
2026-05-06 08:13 28.33402 -78.71273 31049 ft 460 kts
2026-05-06 08:13 28.36487 -78.70293 31043 ft 460 kts
2026-05-06 08:13 28.42629 -78.68341 31057 ft 457 kts
2026-05-06 08:14 28.48756 -78.66393 31066 ft 458 kts
2026-05-06 08:14 28.54901 -78.64438 31065 ft 459 kts
2026-05-06 08:15 28.61055 -78.62477 31066 ft 459 kts
2026-05-06 08:15 28.67205 -78.60513 31065 ft 459 kts
2026-05-06 08:16 28.73358 -78.58546 31065 ft 459 kts
2026-05-06 08:16 28.79466 -78.56592 31065 ft 458 kts
2026-05-06 08:17 28.85606 -78.54625 31067 ft 458 kts
2026-05-06 08:17 28.91735 -78.52659 31067 ft 458 kts
2026-05-06 08:18 28.97864 -78.50690 31067 ft 457 kts
2026-05-06 08:18 29.03986 -78.48722 31066 ft 457 kts
2026-05-06 08:19 29.10110 -78.46750 31070 ft 457 kts
2026-05-06 08:19 29.16230 -78.44778 31062 ft 457 kts
2026-05-06 08:20 29.22348 -78.42803 31069 ft 457 kts
2026-05-06 08:20 29.28463 -78.40827 31071 ft 457 kts
2026-05-06 08:21 29.34577 -78.38848 31075 ft 457 kts
2026-05-06 08:21 29.40696 -78.36866 31076 ft 457 kts
2026-05-06 08:22 29.46842 -78.35357 31073 ft 445 kts 358°
2026-05-06 08:22 29.52919 -78.35698 31080 ft 437 kts 346°
2026-05-06 08:23 29.58764 -78.37479 31083 ft 434 kts 340°
2026-05-06 08:23 29.64570 -78.39435 31075 ft 436 kts 340°
2026-05-06 08:24 29.70418 -78.41369 31072 ft 437 kts 340°
2026-05-06 08:24 29.76273 -78.43279 31075 ft 438 kts 340°
2026-05-06 08:25 29.82132 -78.45185 31073 ft 437 kts 340°
2026-05-06 08:25 29.87986 -78.47093 31073 ft 437 kts 340°
2026-05-06 08:26 29.93838 -78.49003 31074 ft 436 kts 340°
2026-05-06 08:26 29.99674 -78.50911 31075 ft 436 kts 340°
2026-05-06 08:27 30.05510 -78.52821 31074 ft 436 kts 340°
2026-05-06 08:27 30.11373 -78.54624 31077 ft 438 kts 346°
2026-05-06 08:28 30.17486 -78.55253 31082 ft 444 kts 354°
2026-05-06 08:28 30.23639 -78.54752 31081 ft 450 kts
2026-05-06 08:29 30.29859 -78.53782 31076 ft 450 kts
2026-05-06 08:29 30.36069 -78.52853 31076 ft 449 kts
2026-05-06 08:30 30.42273 -78.51960 31077 ft 449 kts
2026-05-06 08:30 30.48464 -78.50991 31076 ft 449 kts
2026-05-06 08:31 30.54650 -78.49974 31078 ft 449 kts
2026-05-06 08:31 30.60829 -78.48961 31079 ft 448 kts
2026-05-06 08:32 30.67004 -78.47957 31075 ft 448 kts
2026-05-06 08:32 30.73173 -78.46956 31076 ft 447 kts
2026-05-06 08:33 30.79336 -78.45955 31074 ft 447 kts
2026-05-06 08:33 30.85492 -78.44954 31081 ft 447 kts
2026-05-06 08:34 30.94715 -78.43452 31085 ft 446 kts
2026-05-06 08:35 31.00869 -78.42447 31074 ft 446 kts
2026-05-06 08:35 31.07020 -78.41442 31075 ft 446 kts
2026-05-06 08:36 31.13131 -78.40443 31076 ft 446 kts
2026-05-06 08:36 31.19283 -78.39435 31076 ft 446 kts
2026-05-06 08:37 31.25428 -78.38427 31079 ft 446 kts
2026-05-06 08:37 31.31575 -78.37417 31077 ft 446 kts
2026-05-06 08:38 31.37719 -78.36406 31083 ft 446 kts
2026-05-06 08:38 31.43863 -78.35394 31079 ft 446 kts
2026-05-06 08:39 31.50007 -78.34381 31080 ft 446 kts
2026-05-06 08:39 31.56136 -78.33369 31080 ft 446 kts
2026-05-06 08:40 31.62279 -78.32353 31076 ft 446 kts
2026-05-06 08:40 31.68426 -78.31336 31079 ft 446 kts
2026-05-06 08:41 31.74569 -78.30317 31082 ft 446 kts
2026-05-06 08:41 31.80694 -78.29300 31080 ft 446 kts
2026-05-06 08:42 31.86845 -78.28277 31078 ft 446 kts
2026-05-06 08:42 31.92997 -78.27253 31074 ft 447 kts
2026-05-06 08:43 31.99153 -78.26226 31078 ft 447 kts
2026-05-06 08:43 32.05308 -78.25144 31079 ft 449 kts
2026-05-06 08:44 32.10467 -78.24032 31075 ft 450 kts
2026-05-06 08:44 32.16579 -78.22662 31076 ft 450 kts
2026-05-06 08:45 32.22737 -78.21304 31077 ft 450 kts
2026-05-06 08:45 32.28904 -78.19965 31077 ft 451 kts
2026-05-06 08:46 32.35072 -78.18631 31079 ft 451 kts
2026-05-06 08:46 32.41248 -78.17295 31077 ft 451 kts
2026-05-06 08:47 32.47425 -78.15955 31074 ft 452 kts
2026-05-06 08:47 32.53612 -78.14610 31075 ft 452 kts
2026-05-06 08:48 32.59805 -78.13262 31075 ft 452 kts
2026-05-06 08:48 32.65994 -78.11913 31076 ft 452 kts
2026-05-06 08:49 32.72186 -78.10562 31076 ft 452 kts
2026-05-06 08:49 32.78335 -78.09218 31070 ft 452 kts
2026-05-06 08:50 32.84525 -78.07864 31074 ft 452 kts
2026-05-06 08:50 32.90715 -78.06507 31075 ft 452 kts
2026-05-06 08:51 32.96915 -78.05147 31078 ft 452 kts
2026-05-06 08:51 33.03108 -78.03786 31074 ft 453 kts
2026-05-06 08:52 33.09294 -78.02425 31076 ft 453 kts
2026-05-06 08:52 33.15487 -78.01060 31078 ft 453 kts
2026-05-06 08:53 33.21681 -77.99693 31071 ft 453 kts
2026-05-06 08:53 33.27883 -77.98322 31069 ft 453 kts
2026-05-06 08:54 33.34081 -77.96950 31081 ft 453 kts
2026-05-06 08:54 33.40282 -77.95575 31077 ft 453 kts
2026-05-06 08:55 33.46486 -77.94198 31081 ft 454 kts
2026-05-06 08:55 33.52656 -77.92826 31072 ft 454 kts
2026-05-06 08:56 33.58869 -77.91443 31073 ft 454 kts
2026-05-06 08:56 33.65080 -77.90058 31074 ft 454 kts
2026-05-06 08:57 33.71290 -77.88670 31071 ft 454 kts
2026-05-06 08:57 33.77501 -77.87281 31067 ft 454 kts
2026-05-06 08:58 33.83708 -77.85821 31071 ft 455 kts
2026-05-06 08:58 33.89905 -77.84239 31070 ft 456 kts
2026-05-06 08:59 33.96109 -77.82652 31071 ft 456 kts
2026-05-06 08:59 34.02310 -77.81079 31071 ft 456 kts
2026-05-06 09:00 34.08523 -77.79509 31077 ft 456 kts
2026-05-06 09:00 34.14742 -77.77935 31079 ft 457 kts
2026-05-06 09:01 34.20962 -77.76358 31080 ft 457 kts
2026-05-06 09:01 34.27187 -77.74777 31078 ft 457 kts
2026-05-06 09:02 34.33415 -77.73192 31075 ft 457 kts
2026-05-06 09:02 34.39644 -77.71605 31076 ft 457 kts
2026-05-06 09:03 34.45869 -77.70017 31073 ft 458 kts
2026-05-06 09:03 34.52105 -77.68423 31079 ft 458 kts
2026-05-06 09:04 34.58264 -77.66137 31080 ft 469 kts 14°
2026-05-06 09:04 34.64167 -77.62709 31087 ft 475 kts 19°
2026-05-06 09:05 34.70080 -77.59116 31076 ft 475 kts 19°
2026-05-06 09:05 34.76006 -77.55538 31078 ft 476 kts 18°
2026-05-06 09:06 34.81944 -77.51976 31077 ft 476 kts 18°
2026-05-06 09:06 34.87887 -77.48415 31080 ft 476 kts 18°
2026-05-06 09:07 34.93831 -77.44848 31079 ft 476 kts 18°
2026-05-06 09:07 34.99768 -77.41278 31080 ft 476 kts 18°
2026-05-06 09:08 35.05709 -77.37699 31081 ft 476 kts 19°
2026-05-06 09:08 35.11650 -77.34115 31082 ft 476 kts 19°
2026-05-06 09:09 35.17592 -77.30524 31083 ft 476 kts 19°
2026-05-06 09:09 35.23535 -77.26927 31081 ft 477 kts 19°
2026-05-06 09:10 35.29474 -77.23326 31080 ft 477 kts 19°
2026-05-06 09:10 35.35422 -77.19714 31078 ft 477 kts 19°
2026-05-06 09:11 35.41370 -77.16095 31075 ft 478 kts 19°
2026-05-06 09:11 35.47333 -77.12462 31075 ft 478 kts 19°
2026-05-06 09:12 35.53252 -77.08849 31075 ft 479 kts 19°
2026-05-06 09:12 35.59221 -77.05199 31078 ft 479 kts 19°
2026-05-06 09:13 35.65190 -77.01543 31076 ft 480 kts 19°
2026-05-06 09:13 35.71162 -76.97880 31076 ft 480 kts 19°
2026-05-06 09:14 35.77135 -76.94209 31064 ft 480 kts 19°
2026-05-06 09:14 35.83118 -76.90525 31065 ft 480 kts 19°
2026-05-06 09:15 35.89092 -76.86842 31062 ft 481 kts 19°
2026-05-06 09:15 35.95144 -76.83419 31076 ft 477 kts 15°
2026-05-06 09:16 36.01265 -76.80302 31077 ft 476 kts 15°
2026-05-06 09:16 36.07407 -76.77190 31082 ft 477 kts 15°
2026-05-06 09:17 36.13545 -76.74040 31074 ft 478 kts 15°
2026-05-06 09:17 36.19687 -76.70864 31072 ft 478 kts 15°
2026-05-06 09:18 36.25825 -76.67679 31059 ft 479 kts 15°
2026-05-06 09:18 36.31968 -76.64488 31049 ft 479 kts 15°
2026-05-06 09:19 36.38119 -76.61288 31052 ft 479 kts 15°
2026-05-06 09:19 36.44272 -76.58083 31054 ft 479 kts 15°
2026-05-06 09:20 36.50379 -76.54895 31059 ft 480 kts 15°
2026-05-06 09:20 36.56532 -76.51678 31063 ft 480 kts 15°
2026-05-06 09:21 36.62694 -76.48451 31064 ft 480 kts 15°
2026-05-06 09:21 36.68841 -76.45225 31057 ft 480 kts 15°
2026-05-06 09:22 36.75001 -76.41988 31056 ft 480 kts 15°
2026-05-06 09:22 36.81149 -76.38751 31057 ft 480 kts 15°
2026-05-06 09:23 36.87297 -76.35509 31041 ft 480 kts 15°
2026-05-06 09:23 36.93442 -76.32263 31039 ft 480 kts 15°
2026-05-06 09:24 36.99595 -76.29006 31038 ft 480 kts 15°
2026-05-06 09:24 37.05742 -76.25747 31020 ft 480 kts 15°
2026-05-06 09:25 37.11893 -76.22480 31023 ft 480 kts 15°
2026-05-06 09:25 37.18040 -76.19209 31023 ft 480 kts 15°
2026-05-06 09:26 37.24187 -76.15933 31022 ft 480 kts 15°
2026-05-06 09:26 37.30329 -76.12653 31025 ft 480 kts 15°
2026-05-06 09:27 37.36484 -76.09361 31024 ft 481 kts 15°
2026-05-06 09:27 37.42603 -76.06081 31018 ft 481 kts 15°
2026-05-06 09:28 37.48765 -76.02772 31020 ft 481 kts 16°
2026-05-06 09:28 37.54923 -75.99460 31012 ft 481 kts 16°
2026-05-06 09:29 37.61039 -75.96000 30993 ft 486 kts 21°
2026-05-06 09:29 37.66816 -75.91418 31012 ft 492 kts 26°
2026-05-06 09:30 37.72506 -75.86598 31009 ft 493 kts 27°
2026-05-06 09:30 37.77245 -75.82611 30999 ft 493 kts 26°
2026-05-06 09:31 37.82966 -75.77838 30999 ft 492 kts 26°
2026-05-06 09:31 37.88691 -75.73070 31017 ft 493 kts 26°
2026-05-06 09:32 37.94420 -75.68290 31012 ft 493 kts 26°
2026-05-06 09:32 38.00142 -75.63502 31015 ft 493 kts 26°
2026-05-06 09:33 38.05879 -75.58692 31017 ft 494 kts 26°
2026-05-06 09:33 38.11610 -75.53877 31016 ft 494 kts 26°
2026-05-06 09:34 38.17350 -75.49045 30996 ft 495 kts 26°
2026-05-06 09:34 38.23101 -75.44230 30995 ft 493 kts 24°
2026-05-06 09:35 38.29241 -75.40720 30998 ft 479 kts 11°
2026-05-06 09:35 38.35664 -75.38932 31002 ft 470 kts
2026-05-06 09:36 38.42084 -75.37671 30995 ft 471 kts
2026-05-06 09:36 38.48562 -75.36356 30994 ft 472 kts
2026-05-06 09:37 38.55050 -75.34989 30977 ft 473 kts
2026-05-06 09:37 38.61557 -75.33606 30974 ft 474 kts
2026-05-06 09:38 38.68057 -75.32225 30977 ft 475 kts
2026-05-06 09:38 38.74568 -75.30672 30966 ft 481 kts
2026-05-06 09:39 38.80905 -75.27691 30979 ft 492 kts 19°
2026-05-06 09:39 38.86957 -75.23457 30980 ft 496 kts 22°
2026-05-06 09:40 38.92970 -75.19068 30976 ft 497 kts 22°
2026-05-06 09:40 39.02017 -75.12567 30976 ft 497 kts 22°
2026-05-06 09:41 39.08063 -75.08250 30977 ft 497 kts 22°
2026-05-06 09:41 39.14106 -75.03923 30979 ft 497 kts 22°
2026-05-06 09:42 39.20108 -74.99613 30956 ft 497 kts 22°
2026-05-06 09:42 39.26141 -74.95237 30953 ft 499 kts 24°
2026-05-06 09:43 39.31915 -74.90163 30961 ft 503 kts 29°
2026-05-06 09:43 39.37612 -74.84887 30957 ft 503 kts 29°
2026-05-06 09:44 39.43311 -74.79628 30960 ft 503 kts 29°
2026-05-06 09:44 39.49018 -74.74396 30962 ft 503 kts 29°
2026-05-06 09:45 39.54730 -74.69165 30964 ft 503 kts 29°
2026-05-06 09:45 39.60434 -74.63929 30960 ft 502 kts 29°
2026-05-06 09:46 39.66135 -74.58682 30957 ft 502 kts 29°
2026-05-06 09:46 39.71831 -74.53428 30958 ft 502 kts 29°
2026-05-06 09:47 39.77490 -74.48198 30955 ft 503 kts 29°
2026-05-06 09:47 39.83187 -74.42921 30954 ft 503 kts 30°
2026-05-06 09:48 39.88894 -74.37623 30957 ft 503 kts 30°
2026-05-06 09:48 39.94596 -74.32320 30952 ft 504 kts 30°
2026-05-06 09:49 40.00299 -74.27002 30958 ft 504 kts 30°
2026-05-06 09:49 40.06000 -74.21678 30948 ft 505 kts 30°
2026-05-06 09:50 40.11706 -74.16341 30943 ft 505 kts 30°
2026-05-06 09:50 40.17418 -74.10987 30952 ft 506 kts 30°
2026-05-06 09:51 40.23132 -74.05619 30948 ft 506 kts 30°
2026-05-06 09:51 40.28850 -74.00234 30942 ft 506 kts 30°
2026-05-06 09:52 40.34630 -73.94962 30938 ft 503 kts 26°
2026-05-06 09:52 40.40825 -73.90864 30936 ft 497 kts 19°
2026-05-06 09:53 40.47124 -73.87098 30937 ft 498 kts 19°
2026-05-06 09:53 40.53371 -73.83267 30929 ft 499 kts 19°
2026-05-06 09:54 40.59695 -73.79340 30917 ft 500 kts 19°
2026-05-06 09:54 40.66103 -73.76176 30928 ft 490 kts
2026-05-06 09:55 40.72743 -73.74258 30921 ft 488 kts
2026-05-06 09:55 40.79397 -73.72414 30911 ft 490 kts
2026-05-06 09:56 40.86061 -73.70509 30913 ft 490 kts
2026-05-06 09:56 40.92740 -73.68563 30910 ft 491 kts
2026-05-06 09:57 40.99421 -73.66608 30910 ft 492 kts
2026-05-06 09:57 41.06101 -73.64653 30912 ft 492 kts
2026-05-06 09:58 41.12787 -73.62693 30909 ft 492 kts
2026-05-06 09:58 41.19463 -73.60732 30910 ft 492 kts
2026-05-06 09:59 41.26147 -73.58765 30911 ft 491 kts
2026-05-06 09:59 41.32839 -73.57369 30922 ft 484 kts 359°
2026-05-06 10:00 41.39541 -73.56513 30908 ft 484 kts 359°
2026-05-06 10:00 41.46227 -73.55671 30909 ft 484 kts 359°
2026-05-06 10:01 41.52928 -73.54785 30901 ft 483 kts 359°
2026-05-06 10:01 41.59616 -73.53876 30888 ft 483 kts 359°
2026-05-06 10:02 41.66301 -73.52963 30872 ft 482 kts 359°
2026-05-06 10:02 41.72982 -73.52045 30881 ft 483 kts 359°
2026-05-06 10:03 41.79668 -73.51129 30869 ft 483 kts 359°
2026-05-06 10:03 41.86369 -73.50211 30860 ft 484 kts 359°
2026-05-06 10:04 41.93017 -73.49298 30846 ft 483 kts 359°
2026-05-06 10:04 41.99717 -73.48373 30837 ft 484 kts 359°
2026-05-06 10:05 42.06412 -73.47449 30831 ft 483 kts 359°
2026-05-06 10:05 42.13101 -73.46523 30834 ft 483 kts 359°
2026-05-06 10:06 42.19793 -73.45594 30816 ft 483 kts 359°
2026-05-06 10:06 42.26469 -73.44668 30847 ft 482 kts 359°
2026-05-06 10:07 42.33142 -73.43738 30847 ft 481 kts 359°
2026-05-06 10:07 42.39797 -73.42809 30855 ft 481 kts 359°
2026-05-06 10:08 42.46457 -73.41876 30858 ft 481 kts 359°
2026-05-06 10:08 42.53121 -73.40943 30851 ft 481 kts 359°
2026-05-06 10:09 42.59778 -73.40008 30842 ft 481 kts 359°
2026-05-06 10:09 42.66441 -73.39070 30850 ft 481 kts 359°
2026-05-06 10:10 42.73096 -73.38133 30843 ft 481 kts 359°
2026-05-06 10:10 42.79747 -73.37192 30850 ft 481 kts 359°
2026-05-06 10:11 42.86420 -73.36245 30843 ft 482 kts 359°
2026-05-06 10:11 42.93105 -73.35297 30840 ft 483 kts 358°
2026-05-06 10:12 42.99801 -73.34482 30840 ft 480 kts 354°
2026-05-06 10:12 43.06403 -73.34888 30847 ft 474 kts 348°
2026-05-06 10:13 43.12986 -73.35564 30840 ft 475 kts 347°
2026-05-06 10:13 43.19584 -73.36204 30853 ft 475 kts 348°
2026-05-06 10:14 43.26183 -73.36803 30847 ft 476 kts 348°
2026-05-06 10:14 43.32797 -73.37394 30848 ft 476 kts 348°
2026-05-06 10:15 43.38299 -73.37887 30840 ft 476 kts 348°
2026-05-06 10:15 43.44910 -73.38484 30838 ft 476 kts 348°
2026-05-06 10:16 43.52592 -73.39180 30849 ft 476 kts 348°
2026-05-06 10:16 43.58126 -73.39683 30841 ft 476 kts 348°
2026-05-06 10:17 43.64719 -73.40282 30849 ft 476 kts 348°
2026-05-06 10:17 43.71332 -73.40888 30851 ft 474 kts 348°
2026-05-06 10:18 43.74579 -73.41220 30833 ft 460 kts 347°
2026-05-06 10:18 43.77720 -73.41566 30835 ft 447 kts 347°
2026-05-06 10:18 43.83865 -73.42292 30369 ft 445 kts 346°
2026-05-06 10:19 43.86985 -73.42661 29868 ft 443 kts 347°
2026-05-06 10:19 43.90006 -73.43015 29340 ft 440 kts 347°
2026-05-06 10:19 43.93050 -73.43367 28811 ft 438 kts 347°
2026-05-06 10:19 43.96076 -73.43714 28291 ft 435 kts 347°
2026-05-06 10:20 43.99086 -73.44059 27778 ft 433 kts 347°
2026-05-06 10:20 44.02082 -73.44402 27289 ft 431 kts 347°
2026-05-06 10:20 44.05059 -73.44743 26820 ft 428 kts 347°
2026-05-06 10:20 44.08019 -73.45082 26377 ft 425 kts 347°
2026-05-06 10:21 44.10961 -73.45419 25933 ft 423 kts 347°
2026-05-06 10:21 44.13880 -73.45756 25490 ft 420 kts 347°
2026-05-06 10:21 44.16793 -73.46091 25041 ft 419 kts 347°
2026-05-06 10:21 44.19694 -73.46425 24619 ft 417 kts 347°
2026-05-06 10:22 44.22575 -73.46757 24200 ft 416 kts 347°
2026-05-06 10:22 44.25448 -73.47089 23812 ft 413 kts 347°
2026-05-06 10:22 44.28311 -73.47419 23425 ft 411 kts 347°
2026-05-06 10:22 44.31151 -73.47748 22958 ft 409 kts 347°
2026-05-06 10:23 44.33983 -73.48076 22512 ft 407 kts 347°
2026-05-06 10:23 44.36796 -73.48401 22082 ft 404 kts 347°
2026-05-06 10:23 44.39593 -73.48726 21655 ft 402 kts 347°
2026-05-06 10:23 44.42360 -73.49045 21180 ft 395 kts 347°
2026-05-06 10:24 44.45087 -73.49358 20457 ft 391 kts 347°
2026-05-06 10:24 44.47794 -73.49674 20047 ft 388 kts 347°
2026-05-06 10:24 44.50479 -73.49988 19632 ft 387 kts 347°
2026-05-06 10:24 44.53158 -73.50303 19217 ft 385 kts 347°
2026-05-06 10:25 44.55825 -73.50616 18811 ft 384 kts 347°
2026-05-06 10:25 44.58477 -73.50926 18406 ft 382 kts 347°
2026-05-06 10:25 44.61126 -73.51236 17960 ft 382 kts 348°
2026-05-06 10:25 44.63770 -73.51546 17497 ft 380 kts 348°
2026-05-06 10:26 44.66396 -73.51852 17085 ft 378 kts 348°
2026-05-06 10:26 44.68977 -73.52154 16669 ft 376 kts 348°
2026-05-06 10:26 44.71569 -73.52457 16336 ft 371 kts 348°
2026-05-06 10:26 44.74155 -73.52761 15961 ft 367 kts 347°
2026-05-06 10:27 44.76692 -73.53061 15563 ft 365 kts 347°
2026-05-06 10:27 44.79213 -73.53360 15173 ft 362 kts 347°
2026-05-06 10:27 44.81687 -73.53653 14790 ft 360 kts 348°
2026-05-06 10:27 44.84180 -73.53949 14401 ft 358 kts 348°
2026-05-06 10:28 44.86653 -73.54239 14013 ft 356 kts 348°
2026-05-06 10:28 44.89119 -73.54514 13615 ft 355 kts 348°
2026-05-06 10:28 44.91582 -73.54782 13176 ft 353 kts 348°
2026-05-06 10:28 44.94024 -73.55047 12777 ft 351 kts 348°
2026-05-06 10:29 44.96449 -73.55311 12392 ft 348 kts 348°
2026-05-06 10:29 44.98859 -73.55576 11998 ft 346 kts 348°
2026-05-06 10:29 45.01251 -73.55839 11622 ft 344 kts 348°
2026-05-06 10:29 45.03627 -73.56102 11237 ft 342 kts 348°
2026-05-06 10:30 45.05989 -73.56363 11018 ft 340 kts 348°
2026-05-06 10:30 45.08371 -73.56629 10761 ft 346 kts 348°
2026-05-06 10:30 45.10623 -73.56878 10522 ft 344 kts 348°
2026-05-06 10:30 45.12973 -73.57132 10429 ft 333 kts 348°
2026-05-06 10:31 45.15248 -73.57376 10353 ft 321 kts 348°
2026-05-06 10:31 45.17439 -73.57615 10151 ft 314 kts 348°
2026-05-06 10:31 45.19637 -73.57864 9663 ft 317 kts 348°
2026-05-06 10:31 45.21799 -73.58104 9266 ft 306 kts 348°
2026-05-06 10:32 45.23908 -73.58338 8907 ft 302 kts 348°
2026-05-06 10:32 45.25999 -73.58571 8566 ft 300 kts 348°
2026-05-06 10:32 45.28070 -73.58801 8224 ft 298 kts 348°
2026-05-06 10:32 45.30135 -73.59030 7880 ft 296 kts 349°
2026-05-06 10:33 45.32175 -73.59255 7551 ft 294 kts 349°
2026-05-06 10:33 45.34208 -73.59478 7211 ft 292 kts 349°
2026-05-06 10:33 45.36225 -73.59700 6894 ft 290 kts 349°
2026-05-06 10:33 45.38228 -73.59890 6556 ft 288 kts 355°
2026-05-06 10:34 45.40182 -73.59223 6212 ft 294 kts 25°
2026-05-06 10:34 45.41871 -73.57641 5884 ft 289 kts 32°
2026-05-06 10:34 45.43515 -73.56024 5538 ft 286 kts 31°
2026-05-06 10:34 45.45155 -73.54433 5227 ft 284 kts 31°
2026-05-06 10:35 45.46780 -73.52860 4894 ft 281 kts 31°
2026-05-06 10:35 45.48381 -73.51313 4693 ft 274 kts 31°
2026-05-06 10:35 45.49931 -73.49814 4458 ft 267 kts 31°
2026-05-06 10:35 45.51459 -73.48340 4160 ft 263 kts 30°
2026-05-06 10:36 45.52965 -73.46888 3880 ft 257 kts 31°
2026-05-06 10:36 45.54407 -73.45492 3948 ft 247 kts 30°
2026-05-06 10:36 45.55824 -73.44125 3990 ft 245 kts 29°
2026-05-06 10:36 45.57354 -73.43294 3932 ft 232 kts 353°
2026-05-06 10:37 45.58789 -73.43934 3769 ft 214 kts 310°
2026-05-06 10:37 45.59532 -73.45625 3737 ft 198 kts 286°
2026-05-06 10:37 45.60137 -73.47443 3482 ft 208 kts 296°
2026-05-06 10:37 45.60939 -73.49171 3323 ft 209 kts 298°
2026-05-06 10:38 45.61745 -73.50868 3158 ft 205 kts 297°
2026-05-06 10:38 45.62450 -73.52566 3049 ft 192 kts 277°
2026-05-06 10:38 45.62365 -73.54396 3049 ft 189 kts 249°
2026-05-06 10:38 45.61743 -73.56078 3008 ft 195 kts 227°
2026-05-06 10:39 45.60740 -73.57373 3010 ft 194 kts 228°
2026-05-06 10:39 45.59844 -73.58805 3026 ft 194 kts 228°
2026-05-06 10:39 45.58863 -73.60135 3035 ft 193 kts 224°
2026-05-06 10:39 45.57869 -73.61407 2797 ft 191 kts 224°
2026-05-06 10:40 45.56926 -73.62612 2543 ft 173 kts 224°
2026-05-06 10:40 45.56081 -73.63697 2338 ft 154 kts 224°
2026-05-06 10:40 45.55368 -73.64613 2157 ft 138 kts 223°
2026-05-06 10:40 45.54680 -73.65500 1999 ft 132 kts 223°
2026-05-06 10:41 45.53994 -73.66383 1817 ft 133 kts 222°
2026-05-06 10:41 45.53303 -73.67271 1632 ft 134 kts 221°
2026-05-06 10:41 45.52608 -73.68163 1461 ft 136 kts 221°
2026-05-06 10:41 45.51895 -73.69078 1243 ft 139 kts 221°
2026-05-06 10:42 45.51160 -73.70021 991 ft 145 kts 222°
2026-05-06 10:42 45.50398 -73.71003 735 ft 149 kts 221°
2026-05-06 10:42 45.49621 -73.71991 521 ft 150 kts 221°
2026-05-06 10:42 45.48865 -73.72908 311 ft 148 kts 222°
2026-05-06 10:43 45.48109 -73.73877 136 ft 145 kts 224°
2026-05-06 10:43 45.47445 -73.74751 119 ft 104 kts 223°
2026-05-06 10:43 45.47039 -73.75282 116 ft 45 kts 223°
2026-05-06 10:44 45.46747 -73.75583 120 ft 18 kts 195°
2026-05-06 10:44 45.46625 -73.75629 119 ft 18 kts 193°
2026-05-06 10:44 45.46502 -73.75666 117 ft 18 kts 193°
2026-05-06 10:44 45.46379 -73.75706 116 ft 17 kts 192°
2026-05-06 10:45 45.46300 -73.75705 118 ft 6 kts 134°
2026-05-06 10:45 45.46293 -73.75644 118 ft 7 kts 88°
2026-05-06 10:45 45.46312 -73.75581 117 ft 7 kts 42°
2026-05-06 10:45 45.46365 -73.75563 118 ft 8 kts 356°
2026-05-06 10:46 45.46397 -73.75566 118 ft 2 kts 357°
2026-05-06 10:46 45.46408 -73.75567 118 ft 1 kts 357°
2026-05-06 10:46 45.46412 -73.75567 118 ft 0 kts 357°